Tracking 19242 objects as of 18-Sep-2018
HD Live streaming from Space Station
objects crossing your sky now

FENGYUN 1C DEB

Track FENGYUN 1C DEB now!
10-day predictions


NORAD ID: 38123
Int'l Code: 1999-025EPU
Perigee: 845.0 km
Apogee: 1,508.6 km
Inclination: 100.3 °
Period: 108.8 minutes
Semi major axis: 7547 km
RCS: 0.0116 m2 (small)
Launch date: May 10, 1999
Source: People's Republic of China (PRC)
Launch site: Taiyaun Space Center, China (TSC)

Note: This is SATELLITE DEBRIS
aabbcc
Your satellite tracking list
Your tracking list is empty




NASA's NSSDC Master Catalog

Two Line Element Set (TLE):
1 38123U 99025EPU 18260.33364206 +.00000396 +00000-0 +61306-3 0  9993
2 38123 100.3130 307.7097 0439616 078.1150 286.8903 13.23955355435101
Source of the keplerian elements: AFSPC